Tracking 19176 objects as of 27-May-2018
HD Live streaming from Space Station
objects crossing your sky now

ASTRO H DEB

Track ASTRO H DEB now!
10-day predictions


NORAD ID: 41442
Int'l Code: 2016-012L
Perigee: 561.9 km
Apogee: 581.2 km
Inclination: 31.0 °
Period: 95.9 minutes
Semi major axis: 6942 km
RCS: Unknown
Launch date: February 17, 2016
Source: Japan (JPN)
Launch site: TANEGASHIMA SPACE CENTER (TNSTA)

Note: This is SATELLITE DEBRIS
aabbcc
Your satellite tracking list
Your tracking list is empty




NASA's NSSDC Master Catalog

Two Line Element Set (TLE):
1 41442U 16012L   18147.17046924  .00000632  00000-0  41784-4 0  9998
2 41442  31.0098  85.8169 0013875 205.6656 154.3292 15.00798938124697
Source of the keplerian elements: AFSPC